KC3ROB-13 Weather Reports


Display with metric or nautical units.
time (UTC)temp
F
wind
direction
speed
MPH
gust
MPH
rain 1hr
in
rain 24hr
in
rain mn
in
humidity
%
barometer
mb
20260505021002 64 0 0.0 0.0 0.00 0.00 0.00 100 1004.7
20260505020003 64 0 0.0 0.0 0.00 0.00 0.00 100 1004.7
20260505015002 64 0 0.0 0.0 0.00 0.00 0.00 100 1004.7
20260505014002 64 0 0.0 0.0 0.00 0.00 0.00 100 1004.7
20260505013002 65 0 0.0 0.0 0.00 0.00 0.00 100 1004.7
20260505012003 65 0 0.0 0.0 0.00 0.00 0.00 100 1004.4
20260505011002 66 0 0.0 0.0 0.00 0.00 0.00 100 1004.4
20260505010003 66 0 0.0 0.0 0.00 0.00 0.00 100 1004.4
20260505005002 67 0 0.0 0.0 0.00 0.00 0.00 100 1004.1
20260505004003 67 0 0.0 0.0 0.00 0.00 0.00 100 1004.1
20260505003002 67 0 0.0 0.0 0.00 0.00 0.00 100 1004.1
20260505002003 68 0 0.0 0.0 0.00 0.00 0.00 100 1004.1
20260505001002 68 0 0.0 0.0 0.00 0.00 0.00 100 1004.1
20260505000002 69 0 0.0 0.0 0.00 0.00 0.00 100 1003.7
20260504235003 70 0 0.0 0.0 0.00 0.00 0.00 100 1003.7
20260504234002 71 0 0.0 0.0 0.00 0.00 0.00 100 1003.7
20260504233003 73 0 0.0 0.0 0.00 0.00 0.00 100 1003.7
20260504232002 73 0 0.0 0.0 0.00 0.00 0.00 100 1003.7
20260504231002 73 0 0.0 0.0 0.00 0.00 0.00 100 1003.7
20260504230002 73 0 0.0 0.0 0.00 0.00 0.00 100 1003.7
20260504225002 73 0 0.0 0.0 0.00 0.00 0.00 100 1003.7
20260504224003 74 0 0.0 0.0 0.00 0.00 0.00 100 1003.7
20260504223002 74 0 0.0 0.0 0.00 0.00 0.00 100 1003.7
20260504222003 74 0 0.0 0.0 0.00 0.00 0.00 100 1003.7
20260504221004 74 0 0.0 0.0 0.00 0.00 0.00 100 1003.7
20260504220002 75 0 0.0 0.0 0.00 0.00 0.00 100 1004.1
20260504215002 75 0 0.0 0.0 0.00 0.00 0.00 100 1004.1
20260504214002 75 0 0.0 0.0 0.00 0.00 0.00 100 1004.1
20260504213003 75 0 0.0 0.0 0.00 0.00 0.00 100 1004.1
20260504212003 75 0 0.0 0.0 0.00 0.00 0.00 100 1003.7
20260504211002 75 0 0.0 0.0 0.00 0.00 0.00 100 1003.7
20260504210003 75 0 0.0 0.0 0.00 0.00 0.00 100 1004.1
20260504205002 75 0 0.0 0.0 0.00 0.00 0.00 100 1004.1
20260504204002 75 0 0.0 0.0 0.00 0.00 0.00 100 1004.1
20260504203003 76 0 0.0 0.0 0.00 0.00 0.00 100 1004.1
20260504202003 76 0 0.0 0.0 0.00 0.00 0.00 100 1004.4
20260504201002 76 0 0.0 0.0 0.00 0.00 0.00 100 1004.4
20260504200002 75 0 0.0 0.0 0.00 0.00 0.00 100 1004.4
20260504195002 75 0 0.0 0.0 0.00 0.00 0.00 100 1004.4
20260504194002 74 0 0.0 0.0 0.00 0.00 0.00 100 1004.7
20260504193003 73 0 0.0 0.0 0.00 0.00 0.00 100 1005.1
20260504192002 73 0 0.0 0.0 0.00 0.00 0.00 100 1005.1
20260504191002 73 0 0.0 0.0 0.00 0.00 0.00 100 1005.1
20260504190002 72 0 0.0 0.0 0.00 0.00 0.00 100 1005.1
20260504185002 72 0 0.0 0.0 0.00 0.00 0.00 100 1005.1
20260504184003 72 0 0.0 0.0 0.00 0.00 0.00 100 1005.4
20260504183002 71 0 0.0 0.0 0.00 0.00 0.00 100 1005.4
20260504182002 71 0 0.0 0.0 0.00 0.00 0.00 100 1006.1
20260504181002 71 0 0.0 0.0 0.00 0.00 0.00 100 1006.1
20260504180003 70 0 0.0 0.0 0.00 0.00 0.00 100 1006.1
20260504175002 70 0 0.0 0.0 0.00 0.00 0.00 100 1006.1
20260504174003 70 0 0.0 0.0 0.00 0.00 0.00 100 1006.1
20260504173003 70 0 0.0 0.0 0.00 0.00 0.00 100 1006.4
20260504172002 70 0 0.0 0.0 0.00 0.00 0.00 100 1006.8
20260504171003 70 0 0.0 0.0 0.00 0.00 0.00 100 1006.8
20260504151002 65 0 0.0 0.0 0.00 0.00 0.00 100 1007.8
20260504141002 62 0 0.0 0.0 0.00 0.00 0.00 100 1008.1
20260504081051 48 0 0.0 0.0 0.00 0.00 0.00 100 1009.1
20260504045051 51 0 0.0 0.0 0.00 0.00 0.00 100 1009.1
20260504044051 52 0 0.0 0.0 0.00 0.00 0.00 100 1008.8
20260504043051 52 0 0.0 0.0 0.00 0.00 0.00 100 1008.5
20260504042052 53 0 0.0 0.0 0.00 0.00 0.00 100 1008.5
20260504041051 53 0 0.0 0.0 0.00 0.00 0.00 100 1008.5
20260504040051 53 0 0.0 0.0 0.00 0.00 0.00 100 1008.1
20260504035051 53 0 0.0 0.0 0.00 0.00 0.00 100 1007.8
20260504034052 53 0 0.0 0.0 0.00 0.00 0.00 100 1007.8
20260504033051 53 0 0.0 0.0 0.00 0.00 0.00 100 1007.8
20260504032052 53 0 0.0 0.0 0.00 0.00 0.00 100 1007.8
20260504031051 53 0 0.0 0.0 0.00 0.00 0.00 100 1007.8
20260504030051 53 0 0.0 0.0 0.00 0.00 0.00 100 1007.8
20260504025051 54 0 0.0 0.0 0.00 0.00 0.00 100 1007.8
20260504024051 54 0 0.0 0.0 0.00 0.00 0.00 100 1007.8
20260504023051 54 0 0.0 0.0 0.00 0.00 0.00 100 1007.8
20260504022051 54 0 0.0 0.0 0.00 0.00 0.00 100 1007.8